Regional Weather Roundup
Issued by NWS

Home | Current Version | Previous Version | Graphics & Text | Print | Product List | Glossary On
Versions: 1 2 3 4 5 6 7 8 9 10 11 12 13 14 15 16 17 18 19 20 21 22 23 24 25 26 27
000
ASUS45 KCYS 250110
RWRWY

WYOMING REGIONAL WEATHER ROUNDUP
NATIONAL WEATHER SERVICE CHEYENNE WY
700 PM MDT SUN JUL 24 2016

NOTE:  "FAIR" INDICATES FEW OR NO CLOUDS BELOW 12,000 FEET
WITH NO SIGNIFICANT WEATHER AND/OR OBSTRUCTIONS TO VISIBILITY.

WYZ001-250200-
YELLOWSTONE NATIONAL PARK

CITY           SKY/WX    TMP DP  RH WIND       PRES   REMARKS
LK YELLOWSTONE   N/A     73  22  14 VRB5      30.35S
W YELLOWSTONE  NOT AVBL

$$
WYZ002>013-054>058-071-098>099-250200-
NORTHERN WYOMING

CITY           SKY/WX    TMP DP  RH WIND       PRES   REMARKS
JACKSON        SUNNY     81  28  15 W10       30.21S
CODY           FAIR      84  36  17 SE3       30.10S
GREYBULL       FAIR      90  30  11 SE5       30.00F
WORLAND        FAIR      89  35  14 N7        30.02F
SHERIDAN       FAIR      91  39  16 N3        30.04S
BUFFALO        FAIR      86  38  18 E10       30.12S
GILLETTE       FAIR      85  38  18 SE7       30.08F
HULETT         FAIR      82  46  28 E13       30.12S
NEWCASTLE      FAIR      86  36  16 S10G20    30.11S

$$
WYZ014>020-022>026-101>103-250200-
CENTRAL WYOMING

CITY           SKY/WX    TMP DP  RH WIND       PRES   REMARKS
BIG PINEY      FAIR      83  26  12 NW9       30.24F
PINEDALE       FAIR      79  23  12 NW10      30.26S
DUBOIS         FAIR      77  18  10 N6        30.24F
LANDER         FAIR      87  32  14 NE6       30.11F
RIVERTON       FAIR      86  26  11 E9        30.11F
CASPER         FAIR      86  28  12 N8        30.13S
DOUGLAS          N/A    N/A N/A N/A MISG      30.11S

$$
WYZ021-027>030-104>119-250200-
SOUTHERN WYOMING

CITY           SKY/WX    TMP DP  RH WIND       PRES   REMARKS
EVANSTON       FAIR      83  16   8 NW13      30.27S
KEMMERER         N/A    N/A N/A N/A W15       30.28S
FORT BRIDGER   FAIR      85  17   8 W17G23    30.28S
ROCK SPRINGS   FAIR      85  15   7 W14G24    30.21S
DIXON          FAIR      84  33  16 CALM      30.21F
RAWLINS        FAIR      86  15   7 W15G21    30.21S
SARATOGA       FAIR      82  27  13 N6        30.25S
LARAMIE        FAIR      81  28  14 N8        30.26S
CHEYENNE       FAIR      71  57  61 SE17G24   30.22R
TORRINGTON     FAIR      79  51  37 E23G32    30.08S
PINE BLUFFS    FAIR      68  54  60 SE15G21   30.18R

$$




USA.gov is the U.S. government's official web portal to all federal, state and local government web resources and services.